Other Public Products
Issued by NWS Grand Forks, ND

Home | Current Version | Previous Version | Text Only | Print | Product List | Glossary On
Versions: 1 2 3 4 5 6 7 8 9 10 11 12 13 14 15 16 17 18 19 20 21 22 23 24 25 26 27 28 29 30 31 32 33 34 35 36 37 38 39 40 41 42 43 44 45 46 47 48 49 50
000
FPUS83 KFGF 290731
OPUFGF
PRAIRIE TO PINES WEATHER ROUNDUP
NATIONAL WEATHER SERVICE EASTERN NORTH DAKOTA/GRAND FORKS ND
100 AM CST SAT NOV 29 2014

 **SATELLITE DATA USED TO AUGMENT SKY COVER AT AUTOMATED STATIONS**
 *****  WEATHER ACROSS EASTERN NORTH DAKOTA  *****

CITY           SKY/WX    TMP DP  RH WIND       PRES   REMARKS
GRAND FORKS    CLOUDY    18  13  80 S9        29.52F WCI   7
GRAND FORKS AF CLOUDY    17  14  89 S6        29.51F WCI   8
GRAND CITY NWS   N/A     18 N/A N/A S9          N/A  WCI   6
BUXTON           N/A     19  17  95 SE12        N/A  WCI   6
DEVILS LAKE    MOCLDY    16   7  67 S5        29.42F WCI   9
FARGO          CLOUDY    21  16  81 S18       29.53F WCI   6
WAHPETON ARPT  CLOUDY    21  19  93 S14       29.54F WCI   8
$$

 *****  WEATHER ACROSS CENTRAL AND WESTERN NORTH DAKOTA  *****

CITY           SKY/WX    TMP DP  RH WIND       PRES   REMARKS
JAMESTOWN      PTCLDY    16  12  84 SE9       29.44F WCI   4
BISMARCK       CLOUDY    22  18  85 E5        29.39F WCI  16
MINOT          CLOUDY    10   6  84 N8        29.40F WCI  -2
MINOT AFB      MOCLDY    10   9  92 E6        29.41F WCI   1
GARRISON         N/A     18  15  88 VRB5      29.38F WCI  11
WILLISTON      CLOUDY    22  17  81 N14       29.46S WCI   9
DICKINSON      CLOUDY    40  31  70 NW14      29.34R
HETTINGER      PTCLDY    37  28  70 SW3       29.38F
$$

 *****  OTHER OBSERVATIONS NORTHEAST NORTH DAKOTA  *****

CITY           SKY/WX    TMP DP  RH WIND       PRES   REMARKS
WALHALLA         N/A     14  14 100 E3        29.50F
LANGDON        CLOUDY    14  10  85 S9        29.45R WCI   2
CAVALIER       CLOUDY    16  14  93 S5        29.51F WCI   9
GRAFTON        CLOUDY    16  14  93 SE9       29.52F WCI   4
CANDO          CLOUDY    14  12  92 SE5       29.46F WCI   6
FORT TOTTEN      N/A     14  11  87 S7        29.95S WCI   4
ROLLA          FLURRIES  10  10 100 SE3       29.43F
RUGBY          FAIR      12   9  85 SE6       29.43F WCI   3
 ***** THE ABOVE OBSERVATIONS ARE NON NWS ARE NOT QUALITY
        CONTROLLED AND MAY MIS-REPORT RAIN FOR SNOW...
$$

 *****  OTHER OBSERVATIONS SOUTHEAST NORTH DAKOTA *****

CITY           SKY/WX    TMP DP  RH WIND       PRES   REMARKS
COOPERSTOWN    NOT AVBL
VALLEY CITY    FAIR      16  16 100 S9        29.45F WCI   4
OAKES            N/A     16  16 100 SE6       29.46F WCI   7
GWINNER        SUNNY     19  18  93 SE6       29.49F WCI  11
SHEYENNE NWR     N/A     18  15  89 S7        29.95S WCI   9
BUFFALO        NOT AVBL
WYNDMERE         N/A     19  18  93 S12         N/A  WCI   7
 ***** THE ABOVE OBSERVATIONS ARE NON NWS ARE NOT QUALITY
       CONTROLLED AND MAY MIS-REPORT RAIN FOR SNOW...
$$

  *****  WEATHER ACROSS NORTHERN MINNESOTA  *****

CITY           SKY/WX    TMP DP  RH WIND       PRES   REMARKS
FLAG ISLAND    CLOUDY    16  12  86 SE6       29.57F WCI   7
WARROAD        CLOUDY    18  12  79 SE7       29.55F WCI   8
ROSEAU         CLOUDY    18  12  79 SE7       29.54F WCI   8
HALLOCK        CLOUDY    18  14  86 S8        29.52F WCI   7
THF RVR FALLS  CLOUDY    18  14  86 SE6       29.53F WCI   9
HALSTAD          N/A     20  16  83 S14         N/A  WCI   7
FOSSTON        PTCLDY    18  12  79 S8        29.53F WCI   7
BAUDETTE       FLURRIES  17  12  80 SE5       29.56F WCI  10
WASKISH        CLOUDY    18  14  86 CALM      29.57F
CROOKSTON      MOCLDY    19  16  86 S9        29.54F WCI   9
$$
  *****  WEATHER ACROSS CENTRAL AND WEST MINNESOTA  *****

CITY           SKY/WX    TMP DP  RH WIND       PRES   REMARKS
BEMIDJI        CLOUDY    17  13  87 S8        29.53F WCI   6
PARK RAPIDS    CLOUDY    17  14  88 SE13      29.54F WCI   4
WADENA         CLOUDY    18  16  93 SE9       29.54F WCI   6
DETROIT LAKES  CLOUDY    19  18  93 S12       29.54S WCI   7
MOORHEAD       CLOUDY    21  21 100 S13       29.54F WCI   9
FERGUS FALLS   CLOUDY    19  16  86 S13       29.57S WCI   7
ELBOW LAKE     CLOUDY    21  19  92 SE13      29.52F WCI   8
MORRIS MN      FAIR      19  18  93 SE16      29.51F FOG     WCI   5
STAPLES        CLOUDY    18  16  93 SE8       29.55F WCI   7
WHEATON        CLOUDY    19  18  93 SE8       29.55F FOG     WCI   9
$$
  *****  WEATHER ELSEWHERE ACROSS MINNESOTA  *****

CITY           SKY/WX    TMP DP  RH WIND       PRES   REMARKS
DULUTH         FRZ RAIN  19  14  81 SE6       29.62F FOG     WCI  11
INTRNTL FALLS  CLOUDY    18  13  80 SE6       29.59F WCI  10
ELY            MOCLDY    18  14  86 SE5       29.62F WCI  11
CLOQUET        CLOUDY    18  14  86 SE5       29.62F WCI  11
BRAINERD       CLOUDY    18  15  88 SE6       29.60F WCI  10
HIBBING        MOCLDY    18  12  77 S3        29.60F
ALEXANDRIA     CLOUDY    20  17  88 SE9       29.56F WCI   9
SAINT CLOUD    PTCLDY    21  16  81 E3        29.62F
MINNEAPOLIS    MOCLDY    22  18  85 SE8       29.64F WCI  12
$$

  *****  WEATHER ACROSS SOUTH DAKOTA  *****

CITY           SKY/WX    TMP DP  RH WIND       PRES   REMARKS
SIOUX FALLS    CLEAR     22  20  92 E3        29.53F FOG
BROOKINGS      NOT AVBL
WATERTOWN      PTCLDY    23  20  88 S15       29.48F WCI  10
HURON          CLEAR     25  23  92 S10       29.47F WCI  15
SISSETON         N/A     19  19 100 S13       29.51F WCI   6
ABERDEEN       MOCLDY    21  17  84 NE3       29.48F
MITCHELL       CLEAR     25  23  92 SE7       29.49F FOG     WCI  17
PIERRE         PTCLDY    29  26  89 S5        29.43F WCI  24
MOBRIDGE       PTCLDY    27  23  85 SE12      29.38F WCI  17
RAPID CITY     CLEAR     49  20  31 W16       29.46F
$$

  *****  SOME WEATHER IN NEARBY STATES *****

CITY           SKY/WX    TMP DP  RH WIND       PRES   REMARKS
GLASGOW MT     CLOUDY     7   1  76 NW22      29.57R WCI -14
GREAT FALLS MT CLOUDY    -1  -7  75 NW14      29.62R WCI -20
CHEYENNE WY    MOCLDY    49  12  22 W18G25    29.74F
SCOTTSBLUFF NE CLOUDY    42  20  41 N6        29.64F
OMAHA NE       MOCLDY    36  30  79 SE9       29.59F
DES MOINES IA  PTCLDY    37  31  78 SE6       29.61F
DAVENPORT IA   CLEAR     34  29  82 S13       29.73F WCI  25
CHICAGO IL     PTCLDY    30  27  88 S9        29.84F WCI  22
EAU CLAIRE WI  PTCLDY    21  18  88 E6        29.70F WCI  13
LA CROSSE WI   PTCLDY    25  21  85 E7        29.71F WCI  17
$$

  *****  SOME NATIONAL WEATHER *****

CITY           SKY/WX    TMP DP  RH WIND       PRES   REMARKS
LA GUARDIA NY  MOCLDY    29  13  51 NW7       30.30R WCI  22
RALEIGH NC     PTCLDY    29  23  78 CALM      30.30R
ATLANTA GA     PTCLDY    36  21  54 CALM      30.26R
NEW ORLEANS LA PTCLDY    50  45  83 SE7       30.24S
OKLAHOMA CITY  PTCLDY    57  42  57 S18       29.79F
ALBUQUERQUE NM CLEAR     42  19  39 SE7       30.08S
SALT LAKE CITY MOCLDY    58  12  16 S25G35    29.74F
LOS ANGELES CA PTCLDY    61  57  88 CALM      29.90S
BOISE ID       CLOUDY    53  35  50 SW9       29.62S
SEATTLE WA     CLOUDY    40  36  86 S9        29.52S
$$

*** WEATHER ACROSS MANITOBA...SASKATCHEWAN AND ONTARIO ***
                ***ONTARIO***

CITY           SKY/WX    TMP DP  RH WIND       PRES   REMARKS
GERALDTON      FLURRIES N/A N/A N/A E8          N/A
THUNDER BAY    LGT SNOW  21  19  93 N3        29.75F
SIOUX LOOKOUT  LGT SNOW   9   5  85 E8        29.67F VSB 1   WCI  -4
TORONTO        CLOUDY    25  14  63 SE5       30.16F WCI  19
BIG TROUT LK   CLOUDY   -15 -18  84 SE3       29.94F
PICKLE LAKE    NOT AVBL
DRYDEN         LGT SNOW  10   9  92 E7        29.62F VSB 1   WCI   0
KENORA         LGT SNOW  12   9  85 SE9       29.58F DRFTSNOWWCI   0
$$
                *** MANITOBA***

CITY           SKY/WX    TMP DP  RH WIND       PRES   REMARKS
BRANDON        LGT SNOW   7   3  85 NE13      29.50F VSB 1   WCI  -9
DAUPHIN        LGT SNOW   5   1  85 N8        29.60R WCI  -8
ISLAND LAKE    FLURRIES  -8 -17  65 E5        29.84F WCI -19
PILOT MOUND      N/A     12   9  85 S6          N/A  WCI   3
THE PAS        LGT SNOW  -6 -11  77 NE7       29.76F WCI -20
THOMPSON       LGT SNOW -11 -18  70 N2        29.87F
WINNIPEG       FLURRIES  14   9  79 SE9       29.56F WCI   2
LYNN LAKE      CLOUDY   -15 -20  76 NW3       29.83F
CHURCHILL      CLEAR    -20 -26  76 W8        29.88F WCI -39
GILLAM         CLOUDY   -13 -20  70 NW5       29.90F WCI -25
$$
                ***SASKATCHEWAN***

CITY           SKY/WX    TMP DP  RH WIND       PRES   REMARKS
ESTEVAN        CLOUDY    12   9  85 W7        29.46S WCI   2
KINDERSLEY     LGT SNOW  -6 -11  77 NW18G25   29.65R DRFTSNOWWCI -29
LLOYDMINSTER   LGT SNOW -11 -17  77 NW12      29.70S WCI -31
PRINCE ALBERT  LGT SNOW  -6 -11  77 NE6       29.70S WCI -18
REGINA         FLURRIES   9   7  92 NW13      29.50S WCI  -7



USA.gov is the U.S. government's official web portal to all federal, state and local government web resources and services.